Tracking 35275 objects as of 8-Sep-2026
HD Live streaming from Space Station
objects crossing your sky now

COSMOS 1408 DEB


COSMOS 1408 DEB is no longer on orbit


NORAD ID: 50688
Int'l Code: 1982-092APL
Launch date: September 16, 1982
Source: Commonwealth of Independent States (former USSR) (CIS)
Launch site: PLESETSK MISSILE AND SPACE COMPLEX (PKMTR)
Decay date: 2022-02-13

Note: This is SATELLITE DEBRIS
Your satellite tracking list
Your tracking list is empty




NASA's NSSDC Master Catalog

Two Line Element Set (TLE):
1 50688U 82092APL 22043.29465542  .13984746 -12739-5  13206-2 0  9990
2 50688  82.3616  25.7379 0011371 296.9645  63.0491 16.38484896  7469
Source of the keplerian elements: AFSPC